{"data":{"norad_id":43864,"epoch":"2026-09-19T00:09:49.457952Z","epoch_age_seconds":150893,"freshness":"FRESH","line1":"1 43864U 18105A   26262.00682243  .00000021  00000+0  00000+0 0  9994","line2":"2 43864   0.0377  94.7077 0002155  84.6348 243.8697  1.00273330 28383","mean_motion":1.0027333,"eccentricity":0.0002155,"inclination_deg":0.0377,"raan_deg":94.7077,"arg_perigee_deg":84.6348,"mean_anomaly_deg":243.8697,"bstar":0,"rev_number":2838,"period_min":1436.0747768125,"perigee_km":35777.075440765,"apogee_km":35795.248253568,"semimajor_km":42164.298847167,"source":"CELESTRAK","updated_at":"2026-09-20T09:00:35.264304Z"}}